Time,TemperatureF,DewpointF,PressureIn,WindDirection,WindDirectionDegrees,WindSpeedMPH,WindSpeedGustMPH,Humidity,HourlyPrecipIn,Conditions,Clouds,dailyrainin,SoftwareType,DateUTC
2013-01-11 00:00:00,38.5,28.4,29.46,WSW,248,0.0,1.1,67,0.00,,,0.00,WUHU216HW,2013-01-11 05:00:00,
2013-01-11 00:01:00,38.5,28.4,29.46,South,180,0.0,0.9,67,0.00,,,0.00,WUHU216HW,2013-01-11 05:01:00,
2013-01-11 00:03:00,38.5,28.4,29.46,ESE,113,0.9,0.9,67,0.00,,,0.00,WUHU216HW,2013-01-11 05:03:00,
2013-01-11 00:08:00,38.5,28.4,29.45,ESE,113,0.4,1.1,67,0.00,,,0.00,WUHU216HW,2013-01-11 05:08:00,
2013-01-11 00:13:00,38.3,28.3,29.46,ESE,113,0.0,1.1,67,0.00,,,0.00,WUHU216HW,2013-01-11 05:13:00,
2013-01-11 08:49:00,42.3,35.6,29.28,WSW,248,2.2,2.2,77,0.00,,,0.00,WUHU216HW,2013-01-11 13:49:00,
2013-01-11 08:54:00,42.5,35.7,29.28,East,90,1.8,2.9,77,0.00,,,0.00,WUHU216HW,2013-01-11 13:54:00,
2013-01-11 08:59:00,42.7,35.9,29.28,East,90,0.7,2.9,77,0.00,,,0.00,WUHU216HW,2013-01-11 13:59:00,
2013-01-11 09:04:00,42.8,36.1,29.28,South,180,1.6,2.7,77,0.00,,,0.00,WUHU216HW,2013-01-11 14:04:00,
2013-01-11 09:09:00,43.0,36.3,29.27,SW,225,2.5,3.1,77,0.00,,,0.00,WUHU216HW,2013-01-11 14:09:00,
2013-01-11 09:14:00,43.2,36.5,29.28,SW,225,1.3,3.4,77,0.00,,,0.00,WUHU216HW,2013-01-11 14:14:00,
2013-01-11 09:19:00,43.4,36.6,29.27,ESE,113,1.8,3.4,77,0.00,,,0.00,WUHU216HW,2013-01-11 14:19:00,
2013-01-11 09:24:00,43.6,36.8,29.26,SW,225,1.8,2.5,77,0.00,,,0.00,WUHU216HW,2013-01-11 14:24:00,
2013-01-11 09:29:00,43.7,37.0,29.26,South,180,1.8,2.5,77,0.00,,,0.00,WUHU216HW,2013-01-11 14:29:00,
2013-01-11 09:34:00,43.7,37.0,29.26,SSW,203,4.0,4.0,77,0.00,,,0.00,WUHU216HW,2013-01-11 14:34:00,
2013-01-11 09:39:00,43.9,37.5,29.26,East,90,0.4,4.0,78,0.00,,,0.00,WUHU216HW,2013-01-11 14:39:00,
2013-01-11 09:44:00,43.9,37.5,29.26,NE,45,2.5,4.7,78,0.00,,,0.00,WUHU216HW,2013-01-11 14:44:00,
2013-01-11 09:49:00,43.9,37.5,29.25,WSW,248,1.8,4.7,78,0.00,,,0.00,WUHU216HW,2013-01-11 14:49:00,
2013-01-11 09:54:00,43.9,37.8,29.25,WSW,248,2.2,3.1,79,0.00,,,0.00,WUHU216HW,2013-01-11 14:54:00,
2013-01-11 09:59:00,43.9,37.8,29.24,WSW,248,1.8,2.9,79,0.00,,,0.00,WUHU216HW,2013-01-11 14:59:00,
2013-01-11 10:04:00,44.1,38.0,29.24,North,0,1.1,2.7,79,0.00,,,0.00,WUHU216HW,2013-01-11 15:04:00,
2013-01-11 10:09:00,44.3,38.2,29.24,WSW,248,1.1,2.0,79,0.00,,,0.00,WUHU216HW,2013-01-11 15:09:00,
2013-01-11 10:14:00,44.3,38.2,29.24,SW,225,2.0,2.5,79,0.00,,,0.00,WUHU216HW,2013-01-11 15:14:00,
2013-01-11 10:19:00,44.3,38.2,29.23,NW,315,0.4,2.9,79,0.00,,,0.00,WUHU216HW,2013-01-11 15:19:00,
2013-01-11 10:24:00,44.5,38.3,29.23,WSW,248,1.8,2.9,79,0.00,,,0.00,WUHU216HW,2013-01-11 15:24:00,
2013-01-11 10:29:00,44.5,38.3,29.24,WSW,248,0.4,2.5,79,0.00,,,0.00,WUHU216HW,2013-01-11 15:29:00,
2013-01-11 10:34:00,44.3,38.5,29.23,SW,225,1.1,2.5,80,0.00,,,0.00,WUHU216HW,2013-01-11 15:34:00,
2013-01-11 10:39:00,44.1,38.3,29.23,West,270,1.1,2.5,80,0.00,,,0.00,WUHU216HW,2013-01-11 15:39:00,
2013-01-11 10:44:00,43.9,38.4,29.23,SSW,203,0.4,2.5,81,0.00,,,0.00,WUHU216HW,2013-01-11 15:44:00,
2013-01-11 10:49:00,43.9,38.8,29.22,North,0,0.4,2.2,82,0.00,,,0.00,WUHU216HW,2013-01-11 15:49:00,
2013-01-11 10:54:00,43.7,38.9,29.22,WNW,293,1.1,2.0,83,0.00,,,0.00,WUHU216HW,2013-01-11 15:54:00,
2013-01-11 10:59:00,43.7,39.3,29.22,SSW,203,0.4,2.9,84,0.00,,,0.00,WUHU216HW,2013-01-11 15:59:00,
2013-01-11 11:04:00,43.6,38.7,29.22,WSW,248,0.4,2.9,83,0.00,,,0.00,WUHU216HW,2013-01-11 16:04:00,
2013-01-11 11:09:00,43.6,39.6,29.22,WSW,248,0.4,1.6,86,0.00,,,0.00,WUHU216HW,2013-01-11 16:09:00,
2013-01-11 11:14:00,43.6,39.3,29.21,SSW,203,0.2,1.8,85,0.00,,,0.00,WUHU216HW,2013-01-11 16:14:00,
2013-01-11 11:19:00,43.6,39.3,29.21,SW,225,1.8,1.8,85,0.00,,,0.00,WUHU216HW,2013-01-11 16:19:00,
2013-01-11 11:24:00,43.6,40.2,29.19,SW,225,0.7,1.8,88,0.00,,,0.00,WUHU216HW,2013-01-11 16:24:00,
2013-01-11 11:29:00,43.9,40.3,29.18,SSW,203,1.1,1.8,87,0.00,,,0.00,WUHU216HW,2013-01-11 16:29:00,
2013-01-11 11:34:00,44.3,41.3,29.18,WSW,248,2.5,2.5,89,0.00,,,0.00,WUHU216HW,2013-01-11 16:34:00,
2013-01-11 11:39:00,44.3,41.0,29.18,SW,225,1.1,2.7,88,0.00,,,0.00,WUHU216HW,2013-01-11 16:39:00,
2013-01-11 11:44:00,44.1,40.8,29.18,West,270,1.1,2.7,88,0.00,,,0.00,WUHU216HW,2013-01-11 16:44:00,
2013-01-11 11:49:00,44.1,40.8,29.18,North,0,1.6,2.5,88,0.00,,,0.00,WUHU216HW,2013-01-11 16:49:00,
2013-01-11 11:54:00,44.3,41.3,29.19,WSW,248,0.0,2.5,89,0.00,,,0.00,WUHU216HW,2013-01-11 16:54:00,
2013-01-11 11:59:00,44.3,41.6,29.20,WNW,293,0.0,1.8,90,0.00,,,0.00,WUHU216HW,2013-01-11 16:59:00,
2013-01-11 12:04:00,44.3,41.0,29.21,WSW,248,0.4,1.3,88,0.00,,,0.00,WUHU216HW,2013-01-11 17:04:00,
2013-01-11 12:09:00,44.3,41.0,29.21,WSW,248,0.4,0.9,88,0.00,,,0.00,WUHU216HW,2013-01-11 17:09:00,
2013-01-11 12:14:00,44.1,40.8,29.21,SW,225,1.1,1.8,88,0.00,,,0.00,WUHU216HW,2013-01-11 17:14:00,
2013-01-11 12:19:00,43.9,40.6,29.19,WSW,248,1.3,2.5,88,0.00,,,0.00,WUHU216HW,2013-01-11 17:19:00,
2013-01-11 12:24:00,43.9,41.0,29.19,SSW,203,0.0,2.5,89,0.00,,,0.00,WUHU216HW,2013-01-11 17:24:00,
2013-01-11 12:29:00,44.1,41.1,29.20,West,270,0.9,2.5,89,0.00,,,0.00,WUHU216HW,2013-01-11 17:29:00,
2013-01-11 12:34:00,44.3,41.3,29.19,WSW,248,1.1,2.5,89,0.00,,,0.00,WUHU216HW,2013-01-11 17:34:00,
2013-01-11 12:39:00,44.3,41.3,29.19,West,270,0.7,2.5,89,0.00,,,0.00,WUHU216HW,2013-01-11 17:39:00,
2013-01-11 12:44:00,44.8,42.1,29.19,WSW,248,0.7,2.5,90,0.00,,,0.00,WUHU216HW,2013-01-11 17:44:00,
2013-01-11 12:49:00,45.4,42.7,29.18,SW,225,0.7,2.5,90,0.00,,,0.00,WUHU216HW,2013-01-11 17:49:00,
2013-01-11 12:54:00,46.1,43.4,29.18,WNW,293,0.2,2.5,90,0.00,,,0.00,WUHU216HW,2013-01-11 17:54:00,
2013-01-11 12:59:00,46.4,43.7,29.17,WSW,248,0.9,2.5,90,0.00,,,0.00,WUHU216HW,2013-01-11 17:59:00,
2013-01-11 13:04:00,46.4,43.5,29.17,SSW,203,1.8,2.7,89,0.00,,,0.00,WUHU216HW,2013-01-11 18:04:00,
2013-01-11 13:09:00,46.4,43.5,29.17,WSW,248,0.7,2.7,89,0.00,,,0.00,WUHU216HW,2013-01-11 18:09:00,
2013-01-11 13:14:00,46.4,43.5,29.16,SW,225,1.8,2.0,89,0.00,,,0.00,WUHU216HW,2013-01-11 18:14:00,
2013-01-11 13:19:00,46.8,43.8,29.17,WSW,248,2.0,2.5,89,0.00,,,0.00,WUHU216HW,2013-01-11 18:19:00,
2013-01-11 13:24:00,46.6,43.7,29.16,SW,225,2.2,2.9,89,0.00,,,0.00,WUHU216HW,2013-01-11 18:24:00,
2013-01-11 13:29:00,46.8,43.8,29.16,SW,225,0.9,2.9,89,0.00,,,0.00,WUHU216HW,2013-01-11 18:29:00,
2013-01-11 13:34:00,46.8,43.5,29.16,WSW,248,4.0,4.0,88,0.00,,,0.00,WUHU216HW,2013-01-11 18:34:00,
2013-01-11 13:39:00,46.8,43.8,29.16,SSW,203,2.2,4.0,89,0.00,,,0.00,WUHU216HW,2013-01-11 18:39:00,
2013-01-11 13:44:00,46.8,43.8,29.16,WSW,248,1.8,4.0,89,0.00,,,0.00,WUHU216HW,2013-01-11 18:44:00,
2013-01-11 13:49:00,47.0,44.0,29.15,West,270,2.5,2.7,89,0.00,,,0.00,WUHU216HW,2013-01-11 18:49:00,
2013-01-11 13:54:00,47.3,44.4,29.16,SSW,203,2.7,4.3,89,0.00,,,0.00,WUHU216HW,2013-01-11 18:54:00,
2013-01-11 13:59:00,47.3,44.4,29.16,SW,225,1.6,4.3,89,0.00,,,0.00,WUHU216HW,2013-01-11 18:59:00,
2013-01-11 14:04:00,47.3,44.4,29.16,SW,225,3.1,5.8,89,0.00,,,0.00,WUHU216HW,2013-01-11 19:04:00,
2013-01-11 14:09:00,47.5,44.8,29.16,SW,225,3.6,5.8,90,0.00,,,0.00,WUHU216HW,2013-01-11 19:09:00,
2013-01-11 14:14:00,47.9,45.2,29.16,SW,225,3.4,6.0,90,0.00,,,0.00,WUHU216HW,2013-01-11 19:14:00,
2013-01-11 14:19:00,47.9,45.2,29.16,WSW,248,2.2,6.0,90,0.00,,,0.00,WUHU216HW,2013-01-11 19:19:00,
2013-01-11 14:24:00,48.2,45.8,29.14,SW,225,3.8,5.4,91,0.00,,,0.00,WUHU216HW,2013-01-11 19:24:00,
2013-01-11 14:29:00,48.6,46.2,29.14,West,270,2.9,4.9,91,0.00,,,0.00,WUHU216HW,2013-01-11 19:29:00,
2013-01-11 14:34:00,49.0,46.4,29.14,WSW,248,4.0,6.3,91,0.00,,,0.00,WUHU216HW,2013-01-11 19:34:00,
2013-01-11 14:39:00,49.3,46.8,29.14,WSW,248,3.6,6.7,91,0.00,,,0.00,WUHU216HW,2013-01-11 19:39:00,
2013-01-11 14:44:00,49.7,47.2,29.14,SW,225,5.1,6.7,91,0.00,,,0.00,WUHU216HW,2013-01-11 19:44:00,
2013-01-11 14:49:00,50.0,47.4,29.14,SSW,203,6.9,6.9,91,0.00,,,0.00,WUHU216HW,2013-01-11 19:49:00,
2013-01-11 14:54:00,50.4,47.8,29.14,WSW,248,3.4,6.9,91,0.00,,,0.00,WUHU216HW,2013-01-11 19:54:00,
2013-01-11 14:59:00,50.8,48.2,29.15,SSW,203,6.9,6.9,91,0.00,,,0.00,WUHU216HW,2013-01-11 19:59:00,
2013-01-11 15:04:00,50.9,48.3,29.15,SW,225,6.3,8.1,91,0.00,,,0.00,WUHU216HW,2013-01-11 20:04:00,
2013-01-11 15:09:00,51.3,48.7,29.15,WSW,248,3.6,8.1,91,0.00,,,0.00,WUHU216HW,2013-01-11 20:09:00,
2013-01-11 15:14:00,51.5,48.9,29.15,SW,225,3.4,6.3,91,0.00,,,0.00,WUHU216HW,2013-01-11 20:14:00,
2013-01-11 15:19:00,51.8,49.2,29.15,WSW,248,3.8,6.9,91,0.00,,,0.00,WUHU216HW,2013-01-11 20:19:00,
2013-01-11 15:24:00,52.4,50.0,29.16,West,270,5.4,6.9,92,0.00,,,0.00,WUHU216HW,2013-01-11 20:24:00,
2013-01-11 15:29:00,52.7,50.4,29.16,SW,225,5.6,9.2,92,0.00,,,0.00,WUHU216HW,2013-01-11 20:29:00,
2013-01-11 15:34:00,53.1,50.8,29.15,WSW,248,5.1,9.2,92,0.00,,,0.00,WUHU216HW,2013-01-11 20:34:00,
2013-01-11 15:39:00,53.5,51.1,29.16,WSW,248,7.4,7.4,92,0.00,,,0.00,WUHU216HW,2013-01-11 20:39:00,
2013-01-11 15:44:00,53.8,51.5,29.16,WSW,248,4.0,8.5,92,0.00,,,0.00,WUHU216HW,2013-01-11 20:44:00,
2013-01-11 15:49:00,54.2,51.6,29.16,West,270,5.6,8.5,91,0.00,,,0.00,WUHU216HW,2013-01-11 20:49:00,
2013-01-11 15:54:00,54.4,51.5,29.16,SW,225,4.0,7.2,90,0.00,,,0.00,WUHU216HW,2013-01-11 20:54:00,
2013-01-11 15:59:00,54.4,51.2,29.16,WSW,248,4.7,6.9,89,0.00,,,0.00,WUHU216HW,2013-01-11 20:59:00,
2013-01-11 16:04:00,54.4,51.2,29.16,WSW,248,3.8,6.3,89,0.00,,,0.00,WUHU216HW,2013-01-11 21:04:00,
2013-01-11 16:09:00,54.0,50.9,29.16,WSW,248,3.8,6.3,89,0.00,,,0.00,WUHU216HW,2013-01-11 21:09:00,
2013-01-11 16:14:00,54.0,50.9,29.17,SW,225,2.2,6.3,89,0.00,,,0.00,WUHU216HW,2013-01-11 21:14:00,
2013-01-11 16:19:00,54.0,50.9,29.16,SW,225,4.0,5.6,89,0.00,,,0.00,WUHU216HW,2013-01-11 21:19:00,
2013-01-11 16:24:00,54.0,50.9,29.17,WSW,248,4.0,5.6,89,0.00,,,0.00,WUHU216HW,2013-01-11 21:24:00,
2013-01-11 16:29:00,54.0,50.9,29.16,WSW,248,3.1,6.7,89,0.00,,,0.00,WUHU216HW,2013-01-11 21:29:00,
2013-01-11 16:34:00,54.0,50.9,29.16,SW,225,4.0,6.7,89,0.00,,,0.00,WUHU216HW,2013-01-11 21:34:00,
2013-01-11 16:39:00,54.0,50.9,29.17,SW,225,4.0,6.9,89,0.00,,,0.00,WUHU216HW,2013-01-11 21:39:00,
2013-01-11 16:44:00,54.0,50.9,29.17,WSW,248,3.6,6.9,89,0.00,,,0.00,WUHU216HW,2013-01-11 21:44:00,
2013-01-11 16:49:00,53.8,50.3,29.16,SW,225,5.4,6.3,88,0.00,,,0.00,WUHU216HW,2013-01-11 21:49:00,
2013-01-11 16:54:00,53.6,50.5,29.17,WSW,248,6.3,6.9,89,0.00,,,0.00,WUHU216HW,2013-01-11 21:54:00,
2013-01-11 16:59:00,53.6,50.5,29.16,WSW,248,5.1,6.9,89,0.00,,,0.00,WUHU216HW,2013-01-11 21:59:00,
2013-01-11 17:04:00,53.6,50.5,29.16,SW,225,5.8,6.3,89,0.00,,,0.00,WUHU216HW,2013-01-11 22:04:00,
2013-01-11 17:09:00,53.5,50.3,29.17,WSW,248,2.0,6.9,89,0.00,,,0.00,WUHU216HW,2013-01-11 22:09:00,
2013-01-11 17:14:00,53.1,50.0,29.18,WSW,248,4.9,6.9,89,0.00,,,0.00,WUHU216HW,2013-01-11 22:14:00,
2013-01-11 17:19:00,52.9,49.8,29.17,SW,225,3.6,4.9,89,0.00,,,0.00,WUHU216HW,2013-01-11 22:19:00,
2013-01-11 17:24:00,52.9,49.8,29.17,SW,225,4.3,4.9,89,0.00,,,0.00,WUHU216HW,2013-01-11 22:24:00,
2013-01-11 17:29:00,52.7,49.6,29.17,SW,225,2.0,4.7,89,0.00,,,0.00,WUHU216HW,2013-01-11 22:29:00,
2013-01-11 17:34:00,52.6,49.4,29.17,WSW,248,2.9,4.7,89,0.00,,,0.00,WUHU216HW,2013-01-11 22:34:00,
2013-01-11 17:39:00,52.4,49.2,29.17,SW,225,1.6,4.5,89,0.00,,,0.00,WUHU216HW,2013-01-11 22:39:00,
2013-01-11 17:44:00,52.2,49.1,29.18,SW,225,2.2,3.8,89,0.00,,,0.00,WUHU216HW,2013-01-11 22:44:00,
2013-01-11 17:49:00,52.0,48.9,29.18,WSW,248,2.5,3.8,89,0.00,,,0.00,WUHU216HW,2013-01-11 22:49:00,
2013-01-11 17:54:00,52.0,48.9,29.18,SW,225,2.9,4.5,89,0.00,,,0.00,WUHU216HW,2013-01-11 22:54:00,
2013-01-11 17:59:00,51.8,49.0,29.18,WSW,248,4.9,4.9,90,0.00,,,0.00,WUHU216HW,2013-01-11 22:59:00,
2013-01-11 18:04:00,51.8,49.0,29.18,WSW,248,2.9,4.9,90,0.00,,,0.00,WUHU216HW,2013-01-11 23:04:00,
2013-01-11 18:09:00,52.0,49.1,29.18,WSW,248,5.1,5.1,90,0.00,,,0.00,WUHU216HW,2013-01-11 23:09:00,
2013-01-11 18:14:00,52.0,49.1,29.18,SW,225,2.7,5.4,90,0.00,,,0.00,WUHU216HW,2013-01-11 23:14:00,
2013-01-11 18:19:00,52.0,49.1,29.18,WSW,248,3.1,5.6,90,0.00,,,0.00,WUHU216HW,2013-01-11 23:19:00,
2013-01-11 18:24:00,52.0,49.1,29.18,SW,225,3.1,5.6,90,0.00,,,0.00,WUHU216HW,2013-01-11 23:24:00,
2013-01-11 18:29:00,51.8,48.7,29.19,SW,225,2.2,5.4,89,0.00,,,0.00,WUHU216HW,2013-01-11 23:29:00,
2013-01-11 18:34:00,51.7,48.5,29.19,SW,225,3.8,4.0,89,0.00,,,0.00,WUHU216HW,2013-01-11 23:34:00,
2013-01-11 18:39:00,51.7,48.8,29.19,SSW,203,4.0,6.7,90,0.00,,,0.00,WUHU216HW,2013-01-11 23:39:00,
2013-01-11 18:44:00,51.7,48.8,29.19,WSW,248,3.8,6.7,90,0.00,,,0.00,WUHU216HW,2013-01-11 23:44:00,
2013-01-11 18:49:00,51.5,48.6,29.19,SW,225,4.0,4.7,90,0.00,,,0.00,WUHU216HW,2013-01-11 23:49:00,
2013-01-11 18:54:00,51.5,48.6,29.20,SW,225,4.3,5.1,90,0.00,,,0.00,WUHU216HW,2013-01-11 23:54:00,
2013-01-11 18:59:00,51.7,48.8,29.19,SW,225,4.7,5.1,90,0.00,,,0.00,WUHU216HW,2013-01-11 23:59:00,
2013-01-11 19:04:00,51.5,48.6,29.19,SW,225,3.4,4.7,90,0.00,,,0.00,WUHU216HW,2013-01-12 00:04:00,
2013-01-11 19:09:00,51.5,48.6,29.20,SW,225,3.4,5.1,90,0.00,,,0.00,WUHU216HW,2013-01-12 00:09:00,
2013-01-11 19:14:00,51.5,48.6,29.20,WSW,248,2.0,5.1,90,0.00,,,0.00,WUHU216HW,2013-01-12 00:14:00,
2013-01-11 19:19:00,51.3,48.4,29.20,SSW,203,3.6,4.3,90,0.00,,,0.00,WUHU216HW,2013-01-12 00:19:00,
2013-01-11 19:24:00,51.1,48.2,29.20,SW,225,4.0,4.3,90,0.00,,,0.00,WUHU216HW,2013-01-12 00:24:00,
2013-01-11 19:29:00,51.1,48.5,29.20,SW,225,3.4,4.7,91,0.00,,,0.00,WUHU216HW,2013-01-12 00:29:00,
2013-01-11 19:34:00,51.3,48.7,29.20,WSW,248,3.4,5.4,91,0.00,,,0.00,WUHU216HW,2013-01-12 00:34:00,
2013-01-11 19:39:00,51.3,48.7,29.20,SW,225,4.0,5.4,91,0.00,,,0.00,WUHU216HW,2013-01-12 00:39:00,
2013-01-11 19:44:00,51.1,48.5,29.20,WSW,248,2.5,4.7,91,0.00,,,0.00,WUHU216HW,2013-01-12 00:44:00,
2013-01-11 19:49:00,51.1,48.5,29.20,WSW,248,2.5,4.7,91,0.00,,,0.00,WUHU216HW,2013-01-12 00:49:00,
2013-01-11 19:54:00,50.9,48.3,29.20,WSW,248,3.8,4.5,91,0.00,,,0.00,WUHU216HW,2013-01-12 00:54:00,
2013-01-11 19:59:00,50.9,48.3,29.20,SW,225,3.4,4.7,91,0.00,,,0.00,WUHU216HW,2013-01-12 00:59:00,
2013-01-11 20:04:00,50.8,48.2,29.19,SW,225,2.9,4.7,91,0.00,,,0.00,WUHU216HW,2013-01-12 01:04:00,
2013-01-11 20:09:00,50.8,48.2,29.20,SW,225,3.4,4.3,91,0.00,,,0.00,WUHU216HW,2013-01-12 01:09:00,
2013-01-11 20:14:00,50.8,48.2,29.20,SW,225,4.0,4.7,91,0.00,,,0.00,WUHU216HW,2013-01-12 01:14:00,
2013-01-11 20:19:00,50.8,48.2,29.20,SW,225,3.4,4.7,91,0.00,,,0.00,WUHU216HW,2013-01-12 01:19:00,
2013-01-11 20:24:00,50.8,48.2,29.20,SW,225,3.8,4.5,91,0.00,,,0.00,WUHU216HW,2013-01-12 01:24:00,
2013-01-11 20:29:00,50.8,48.2,29.20,SW,225,3.6,4.5,91,0.00,,,0.00,WUHU216HW,2013-01-12 01:29:00,
2013-01-11 20:34:00,50.8,48.2,29.20,SW,225,2.9,4.0,91,0.00,,,0.00,WUHU216HW,2013-01-12 01:34:00,
2013-01-11 20:39:00,50.8,48.2,29.20,SW,225,3.4,4.0,91,0.00,,,0.00,WUHU216HW,2013-01-12 01:39:00,
2013-01-11 20:44:00,50.8,48.2,29.20,WSW,248,2.9,3.6,91,0.00,,,0.00,WUHU216HW,2013-01-12 01:44:00,
2013-01-11 20:49:00,50.8,48.2,29.21,SW,225,3.4,4.0,91,0.00,,,0.00,WUHU216HW,2013-01-12 01:49:00,
2013-01-11 20:54:00,50.8,48.2,29.21,WSW,248,2.5,4.0,91,0.00,,,0.00,WUHU216HW,2013-01-12 01:54:00,
2013-01-11 20:59:00,50.8,48.4,29.21,West,270,3.1,4.0,92,0.00,,,0.00,WUHU216HW,2013-01-12 01:59:00,
2013-01-11 21:04:00,50.6,48.0,29.21,SW,225,2.0,4.0,91,0.00,,,0.00,WUHU216HW,2013-01-12 02:04:00,
2013-01-11 21:09:00,50.6,48.2,29.21,SW,225,3.4,4.0,92,0.00,,,0.00,WUHU216HW,2013-01-12 02:09:00,
2013-01-11 21:14:00,50.4,47.8,29.21,SW,225,3.8,4.0,91,0.00,,,0.00,WUHU216HW,2013-01-12 02:14:00,
2013-01-11 21:19:00,50.4,47.8,29.21,SW,225,3.8,4.5,91,0.00,,,0.00,WUHU216HW,2013-01-12 02:19:00,
2013-01-11 21:24:00,50.4,48.1,29.21,SW,225,2.9,4.5,92,0.00,,,0.00,WUHU216HW,2013-01-12 02:24:00,
2013-01-11 21:29:00,50.4,48.1,29.20,WSW,248,3.6,4.7,92,0.00,,,0.00,WUHU216HW,2013-01-12 02:29:00,
2013-01-11 21:34:00,50.4,48.1,29.20,WSW,248,3.6,4.9,92,0.00,,,0.00,WUHU216HW,2013-01-12 02:34:00,
2013-01-11 21:39:00,50.4,48.1,29.21,SW,225,3.1,4.9,92,0.00,,,0.00,WUHU216HW,2013-01-12 02:39:00,
2013-01-11 21:44:00,50.4,48.1,29.21,SW,225,3.1,4.7,92,0.00,,,0.00,WUHU216HW,2013-01-12 02:44:00,
2013-01-11 21:49:00,50.4,48.1,29.21,WSW,248,3.6,4.7,92,0.00,,,0.00,WUHU216HW,2013-01-12 02:49:00,
2013-01-11 21:54:00,50.4,48.1,29.21,SW,225,3.4,5.1,92,0.00,,,0.00,WUHU216HW,2013-01-12 02:54:00,
2013-01-11 21:59:00,50.4,48.1,29.21,SW,225,4.0,5.1,92,0.00,,,0.00,WUHU216HW,2013-01-12 02:59:00,
2013-01-11 22:04:00,50.4,48.1,29.22,WSW,248,2.5,4.9,92,0.00,,,0.00,WUHU216HW,2013-01-12 03:04:00,
2013-01-11 22:09:00,50.6,48.2,29.22,WSW,248,3.1,4.9,92,0.00,,,0.00,WUHU216HW,2013-01-12 03:09:00,
2013-01-11 22:14:00,50.6,48.2,29.21,SW,225,3.4,4.7,92,0.00,,,0.00,WUHU216HW,2013-01-12 03:14:00,
2013-01-11 22:19:00,50.6,48.2,29.21,WSW,248,3.8,4.7,92,0.00,,,0.00,WUHU216HW,2013-01-12 03:19:00,
2013-01-11 22:24:00,50.8,48.8,29.22,WSW,248,4.9,4.9,93,0.00,,,0.00,WUHU216HW,2013-01-12 03:24:00,
2013-01-11 22:29:00,50.9,49.0,29.22,SSW,203,3.6,4.9,93,0.00,,,0.00,WUHU216HW,2013-01-12 03:29:00,
2013-01-11 22:34:00,51.1,49.2,29.21,SW,225,2.7,4.9,93,0.00,,,0.00,WUHU216HW,2013-01-12 03:34:00,
2013-01-11 22:39:00,51.1,49.2,29.21,SW,225,4.7,5.1,93,0.00,,,0.00,WUHU216HW,2013-01-12 03:39:00,
2013-01-11 22:44:00,51.1,49.2,29.21,WSW,248,5.6,6.5,93,0.00,,,0.00,WUHU216HW,2013-01-12 03:44:00,
2013-01-11 22:49:00,51.1,49.2,29.21,SW,225,4.7,6.5,93,0.00,,,0.00,WUHU216HW,2013-01-12 03:49:00,
2013-01-11 22:54:00,51.3,49.3,29.21,SSW,203,4.9,7.8,93,0.00,,,0.00,WUHU216HW,2013-01-12 03:54:00,
2013-01-11 22:59:00,51.5,49.5,29.21,SW,225,4.3,7.8,93,0.00,,,0.00,WUHU216HW,2013-01-12 03:59:00,
2013-01-11 23:04:00,51.5,49.5,29.21,SW,225,4.3,6.9,93,0.00,,,0.00,WUHU216HW,2013-01-12 04:04:00,
2013-01-11 23:09:00,51.5,49.5,29.21,SW,225,4.5,6.5,93,0.00,,,0.00,WUHU216HW,2013-01-12 04:09:00,
2013-01-11 23:14:00,51.5,49.5,29.21,WSW,248,5.8,8.3,93,0.00,,,0.00,WUHU216HW,2013-01-12 04:14:00,
2013-01-11 23:19:00,51.5,49.5,29.21,WSW,248,2.7,8.3,93,0.00,,,0.00,WUHU216HW,2013-01-12 04:19:00,
2013-01-11 23:24:00,51.5,49.5,29.21,WSW,248,3.8,6.0,93,0.00,,,0.00,WUHU216HW,2013-01-12 04:24:00,
2013-01-11 23:29:00,51.5,49.5,29.21,WSW,248,3.1,6.0,93,0.00,,,0.00,WUHU216HW,2013-01-12 04:29:00,
2013-01-11 23:34:00,51.5,49.5,29.21,SW,225,5.4,5.6,93,0.00,,,0.00,WUHU216HW,2013-01-12 04:34:00,
2013-01-11 23:39:00,51.5,49.5,29.21,WSW,248,2.9,6.0,93,0.00,,,0.00,WUHU216HW,2013-01-12 04:39:00,
2013-01-11 23:44:00,51.5,49.8,29.21,WSW,248,5.4,6.3,94,0.00,,,0.00,WUHU216HW,2013-01-12 04:44:00,
2013-01-11 23:49:00,51.5,49.8,29.21,WSW,248,4.7,6.3,94,0.00,,,0.00,WUHU216HW,2013-01-12 04:49:00,